Overview Statistics Trail Chart Weather Telemetry Raw packets
 

This is the latest recevied weather packets stored in our database for station/object KD7DVD-1. If no packets are shown the sender has not sent any weather packets the latest 10 day(s).

<< 3 4 5 6 7 8 9 >>
Time Temp. Humidity Pressure Rain* Wind** Luminosity Snow
1788481817 18.33° C 64% 1009.3 hPa 0 mm - - -
1788480026 18.33° C 64% 1009.3 hPa 0 mm - - -
1788478217 18.33° C 60% 1009.3 hPa 0 mm - - -
1788476418 18.33° C 63% 1009.4 hPa 0 mm - - -
1788474642 18.33° C 68% 1009.6 hPa 0 mm - - -
1788472817 18.33° C 69% 1009.6 hPa 0 mm - - -
1788471022 18.89° C 66% 1009.6 hPa 0 mm - - -
1788469221 18.33° C 69% 1009.5 hPa 0 mm - - -
1788467422 17.22° C 74% 1009.3 hPa 0 mm - - -
1788465622 17.22° C 75% 1009.6 hPa 0 mm - - -
1788463821 16.67° C 78% 1009.4 hPa 0 mm - - -
1788462021 16.67° C 78% 1009.3 hPa 0 mm - - -
1788460216 15.56° C 80% 1009.3 hPa 0 mm - - -
1788458416 15° C 82% 1009 hPa 0 mm - - -
1788456621 15° C 87% 1008.9 hPa 0 mm - - -
1788454821 14.44° C 90% 1008.8 hPa 0 mm - - -
1788453016 13.33° C 92% 1008.9 hPa 0 mm - - -
1788451216 13.33° C 94% 1008.9 hPa 0 mm - - -
1788449416 12.22° C 94% 1008.8 hPa 0 mm - - -
1788447620 12.22° C 94% 1008.8 hPa 0 mm - - -
1788445816 12.22° C 94% 1008.5 hPa 0 mm - - -
1788444016 11.67° C 95% 1008.4 hPa 0.25 mm - - -
1788442215 11.67° C 94% 1008.3 hPa 0.76 mm - - -
1788440422 11.67° C 94% 1008.1 hPa 0.76 mm - - -
1788438622 11.67° C 94% 1008.2 hPa 0.25 mm - - -

* Rain latest hour (hover to see other rain measurements)
** Current wind speed in m/s (hover to see current wind gust speed)